Wind_Speed
11 12 12 11 10 9 9 9 9 9 9 10 10 11 11 11 10 10 9 10 10 10 10 11 11 11 12 13 14 14 15 16 15 17 19 12 6 11 14 12 9 8 11 12 11 12 14 14 16 15 11 11 14 17 16 16 19 14 6 4 5 6 7 8 8 8 4 2 3 6 10 7 4 6 6 6 6 20 28 22 21 21 21 26 31 34 30 27
11 11 11 12 11 11 10 10 10 10 10 11 11 11 11 11 11 10 10 10 10 10 10 11 11 11 13 14 15 16 16 17 18 21 19 9 9 11 11 12 10 9 11 13 13 15 15 15 17 14 11 14 14 15 14 13 16 9 3 4 6 6 9 12 12 12 10 4 3 3 6 3 5 6 6 2 3 16 19 17 24 27 27 32 34 32 28 24
11 11 11 11 11 11 11 11 10 11 11 11 11 11 11 11 11 11 10 10 10 10 10 11 11 12 13 14 17 18 18 19 19 16 10 6 12 12 10 10 10 10 12 11 13 16 15 14 14 12 13 15 15 16 13 13 13 10 8 4 6 8 11 18 18 19 19 7 4 4 5 2 5 3 3 3 3 11 11 10 17 24 29 32 31 30 27 22
11 11 11 11 11 11 11 11 11 11 11 11 12 12 11 11 11 11 11 11 10 10 10 10 12 13 13 15 17 18 20 18 11 5 4 5 5 8 9 9 9 11 12 10 13 15 13 12 12 13 15 13 16 17 12 13 11 8 9 5 8 10 10 20 22 23 25 12 3 3 3 0 8 5 1 6 5 7 9 13 18 26 31 31 29 29 25 21
11 11 11 11 11 11 11 11 11 11 11 11 11 11 11 11 11 11 11 11 11 10 10 10 11 13 14 15 17 19 17 8 2 2 3 7 6 3 5 7 9 11 11 10 15 17 13 15 17 18 16 10 12 13 11 18 15 7 8 10 15 14 12 21 22 21 21 15 8 6 5 7 11 7 7 4 1 6 14 18 21 29 32 30 30 27 24 23
11 11 11 11 11 11 11 10 10 10 10 11 10 11 11 11 11 11 11 11 11 11 10 10 10 13 13 14 17 18 11 1 3 2 5 6 7 2 2 5 9 11 12 13 17 18 14 17 19 17 13 8 8 8 11 21 18 8 7 12 19 19 15 21 23 21 15 12 9 8 12 14 11 6 11 7 7 17 23 23 23 26 26 27 27 24 22 23
11 12 11 12 11 11 11 11 11 10 10 10 10 10 10 11 11 12 12 11 11 11 10 10 10 13 13 13 15 15 11 11 8 4 5 6 5 3 3 4 9 11 14 17 20 18 14 16 18 17 10 6 9 9 14 19 18 11 7 10 16 20 18 21 25 22 15 6 6 7 13 15 5 4 9 7 20 23 21 22 25 24 23 24 22 18 20 22
12 12 12 12 12 12 12 12 11 11 11 10 10 11 10 11 11 12 12 12 12 11 11 10 10 12 13 13 13 14 16 14 7 2 4 6 4 4 4 5 8 13 16 20 22 17 12 14 18 17 8 5 10 10 15 16 13 11 9 12 15 18 21 23 26 23 13 6 2 2 7 13 10 5 7 10 25 23 22 24 25 25 22 23 18 14 18 20
12 12 12 13 13 13 12 12 12 12 11 11 11 10 11 11 10 12 12 12 12 11 11 10 10 12 13 13 11 11 13 10 6 1 4 6 6 7 6 7 8 13 17 21 21 15 12 15 17 17 10 10 13 11 15 11 6 9 11 14 13 16 21 22 24 24 16 8 9 5 5 13 14 8 4 14 26 24 28 28 24 25 23 21 17 14 16 18
12 12 13 13 13 13 13 13 13 13 12 12 12 11 11 11 11 11 11 12 11 11 10 9 11 11 11 12 7 6 6 2 5 4 4 8 9 8 9 9 7 11 17 22 19 14 15 16 15 17 15 14 13 11 13 10 8 14 16 15 16 18 21 21 22 21 17 7 6 2 2 10 14 6 2 14 28 28 30 30 27 25 23 21 19 18 17 17
12 12 13 13 13 14 14 14 14 13 13 13 12 12 12 12 11 11 11 11 10 10 10 9 11 10 11 10 7 7 8 4 4 5 8 9 8 9 10 10 8 10 17 21 15 11 13 16 16 15 12 9 12 12 14 14 16 19 18 14 14 17 19 21 20 18 15 7 4 5 5 10 9 5 7 11 26 32 30 29 28 25 25 23 21 21 19 18
13 13 13 13 14 14 14 14 14 14 14 14 14 13 13 13 12 12 11 11 10 10 10 10 10 11 11 13 18 13 7 8 5 6 9 5 4 8 9 10 9 8 14 19 14 11 11 14 17 17 12 8 8 8 11 17 20 20 16 11 10 11 12 15 13 15 14 4 8 9 6 9 6 6 13 17 19 28 30 30 29 27 27 25 23 23 21 19
13 13 13 14 14 14 14 15 15 15 15 14 15 14 14 14 13 13 12 11 11 11 11 10 10 12 11 15 23 16 11 13 9 8 13 9 5 8 9 9 10 8 10 15 14 14 13 14 17 19 18 11 6 6 13 18 17 15 10 6 7 7 6 8 7 12 13 6 13 11 4 7 6 9 18 20 21 21 28 28 29 30 29 28 26 25 23 21
13 13 14 14 14 14 15 15 15 15 15 15 15 15 15 15 14 14 13 13 12 12 13 11 11 12 10 18 23 15 11 15 14 13 15 14 8 8 10 9 13 12 8 11 14 15 15 14 16 17 16 13 10 12 14 13 9 6 6 4 4 5 4 6 6 9 9 8 18 12 3 8 6 11 21 21 24 20 28 28 29 31 30 29 28 25 25 22
14 14 14 14 14 15 15 15 15 15 15 15 16 16 16 16 15 15 14 15 14 13 13 11 11 9 11 22 22 7 5 12 19 16 13 16 13 11 14 11 14 17 13 14 15 16 15 12 12 12 13 13 12 11 7 5 6 3 5 5 4 5 5 7 8 8 8 9 17 12 3 7 6 11 21 23 27 20 25 28 27 31 31 30 29 27 26 22
15 15 15 15 15 15 15 16 16 16 16 16 16 16 16 16 17 16 17 18 16 14 12 8 6 6 8 14 11 3 7 15 20 16 12 16 16 15 16 13 13 14 15 15 15 15 14 11 11 10 10 9 6 4 4 4 5 3 4 4 4 5 4 6 8 11 13 9 12 11 5 5 5 12 22 24 27 19 23 29 29 31 31 32 31 29 28 24
16 16 15 15 15 15 16 16 17 17 16 16 16 16 16 17 18 18 18 19 16 12 10 4 1 6 10 10 9 10 11 16 19 16 14 16 16 17 16 15 14 13 15 15 13 14 13 11 10 7 6 5 3 3 4 5 5 4 4 5 5 6 5 5 6 9 15 11 10 12 8 6 5 12 22 24 27 20 23 29 31 30 31 33 31 29 30 28
17 17 16 16 16 16 16 17 17 17 17 16 17 17 16 16 18 20 19 15 10 7 6 7 5 3 10 10 10 11 9 15 18 16 17 17 17 18 17 17 16 13 14 13 12 14 12 10 7 3 3 4 4 4 5 6 6 5 6 5 5 7 8 8 7 8 13 12 11 11 10 10 8 10 18 21 23 21 21 28 32 31 32 34 32 31 31 30
18 18 18 17 17 16 16 17 18 18 18 17 16 16 16 16 17 16 11 6 4 2 4 9 12 5 7 11 15 16 9 10 16 15 17 19 16 17 19 18 15 14 12 7 8 12 10 5 5 4 4 6 6 8 8 7 7 9 10 7 6 7 8 11 12 12 12 10 12 13 10 12 13 11 14 18 18 15 16 24 30 31 32 32 32 32 32 32
19 19 19 18 18 18 17 18 18 18 19 18 16 15 13 11 9 4 3 8 11 13 15 15 18 18 19 22 24 20 11 7 16 13 14 18 17 17 20 18 14 12 9 4 5 12 11 4 5 7 6 7 8 10 11 10 10 11 10 8 8 7 6 10 13 14 13 8 13 14 11 13 16 12 12 18 18 14 14 20 26 29 30 29 29 29 31 32
19 19 20 19 19 19 18 18 17 17 19 18 17 15 11 9 5 4 9 15 21 21 22 22 22 26 28 27 27 23 17 10 16 13 10 18 19 15 17 16 9 6 7 6 6 10 10 6 7 9 8 9 10 10 11 12 13 11 8 7 8 7 6 10 12 13 12 6 10 13 10 11 14 12 12 15 14 9 11 17 22 28 29 30 30 29 30 29
19 19 19 19 19 18 18 17 16 15 16 15 15 13 12 12 7 9 16 17 23 24 23 26 27 31 33 31 29 26 22 14 15 15 11 18 21 14 11 11 6 3 6 8 6 5 6 7 9 10 9 10 11 11 10 12 12 9 6 6 6 7 7 10 14 16 10 5 8 14 11 8 10 12 12 10 9 9 14 20 28 32 29 30 31 30 31 28
19 19 19 18 18 17 16 15 12 12 12 12 12 10 11 10 4 10 15 12 21 28 25 28 31 33 34 31 28 25 22 16 12 17 18 18 20 18 11 7 7 6 6 7 6 4 4 7 11 11 10 11 11 12 10 9 9 8 6 5 6 8 7 5 11 14 7 3 7 11 7 4 6 9 9 8 10 15 21 25 35 39 34 34 35 34 33 30
19 19 18 18 16 15 15 12 8 8 10 10 7 8 13 11 6 12 14 8 12 23 27 27 28 32 34 29 23 23 22 19 14 16 23 23 20 18 12 7 8 7 7 9 10 9 7 9 12 12 12 12 10 11 10 6 5 7 8 6 6 9 8 6 8 10 7 3 4 8 3 4 4 5 6 7 7 11 18 19 25 34 35 35 35 32 32 30
20 19 18 18 16 14 14 11 6 6 10 9 9 14 15 10 7 12 12 6 5 14 22 19 20 26 31 26 21 22 21 19 19 16 21 29 23 15 11 11 8 6 9 11 11 9 11 14 13 12 13 14 11 10 9 6 3 4 6 7 7 11 11 9 11 9 6 6 3 7 4 5 5 3 5 6 4 6 11 11 15 27 32 32 32 28 28 26
20 19 18 17 16 14 13 9 7 10 12 10 10 14 12 9 8 10 7 3 3 8 10 8 11 13 17 21 23 23 15 14 22 21 19 28 28 17 9 9 7 7 9 10 8 5 8 14 12 12 14 14 12 10 10 8 4 3 4 5 7 11 11 10 10 6 2 4 4 3 4 3 5 4 6 5 6 7 9 9 12 23 30 29 30 29 28 24
20 20 19 17 16 16 14 10 9 13 13 11 8 9 8 9 10 8 3 1 3 6 4 7 9 4 6 17 25 19 7 7 18 24 23 25 27 21 10 6 5 8 8 6 5 4 8 12 11 11 10 10 10 8 7 8 5 3 4 6 10 10 11 9 6 6 3 3 4 1 5 2 3 5 7 6 6 5 6 10 11 18 25 27 28 27 25 22
20 20 19 16 15 16 15 14 13 11 10 11 10 8 9 11 9 5 2 1 4 4 2 4 6 2 3 16 25 18 10 8 9 16 25 25 26 19 10 8 7 8 9 6 5 5 8 11 10 9 7 5 6 6 6 7 4 4 4 8 11 11 12 9 5 5 2 0 4 3 4 3 3 5 7 8 6 4 5 10 11 15 23 27 26 23 21 21
20 20 20 17 14 13 14 15 12 7 8 6 5 7 10 10 6 2 2 1 4 3 3 4 4 3 4 12 18 16 14 11 5 13 22 25 27 19 7 11 11 9 9 7 6 7 6 9 11 9 6 5 4 5 5 5 3 5 7 9 10 9 10 7 6 4 2 2 5 4 2 3 3 6 4 5 5 6 6 6 9 15 23 28 25 23 23 23
19 19 19 18 14 11 13 13 7 4 8 7 4 8 10 7 2 1 0 1 3 3 3 4 5 7 7 6 8 10 11 11 10 13 20 23 27 20 9 12 13 8 8 8 8 9 8 9 10 7 5 4 3 2 4 5 7 7 7 8 7 8 7 5 5 3 4 3 5 3 1 3 2 6 2 0 5 7 5 8 9 14 21 24 24 27 25 25
18 17 18 18 15 12 14 11 2 1 6 7 7 8 5 3 1 2 3 2 4 5 2 2 4 8 9 6 5 8 8 8 11 9 12 14 16 13 6 7 8 4 5 5 6 10 11 8 5 5 9 6 2 3 5 8 10 6 5 5 4 5 4 3 3 3 3 4 5 4 4 4 4 5 3 1 5 3 8 14 10 11 15 18 23 28 26 25
16 16 16 16 15 13 13 9 3 4 2 4 7 6 2 1 1 2 3 4 4 4 1 1 6 7 9 8 6 7 7 7 9 8 7 7 6 6 5 4 4 2 4 5 3 7 8 7 5 4 10 8 3 3 5 6 7 6 5 4 3 3 3 2 3 4 3 4 5 7 6 5 4 4 2 3 8 7 10 16 17 16 16 19 25 30 30 28
14 15 14 13 14 13 11 8 6 8 7 6 7 5 1 2 2 5 4 3 4 3 6 5 5 3 7 8 6 7 7 6 8 6 6 7 6 6 8 9 7 4 4 5 3 4 4 5 7 4 5 7 5 4 4 4 4 7 6 4 4 2 1 2 3 2 3 4 5 7 7 5 2 1 4 6 8 10 12 16 24 27 24 26 29 33 33 29
13 13 10 9 10 8 5 5 7 6 3 4 4 1 1 1 3 5 5 6 8 10 11 10 9 7 5 5 4 6 6 6 8 7 6 4 4 5 6 10 11 6 4 3 3 3 2 5 6 4 2 8 8 6 5 5 4 4 5 5 4 4 3 3 2 3 3 3 3 5 4 3 2 2 4 7 9 16 19 17 23 28 27 30 31 30 30 28
12 10 7 6 6 3 4 2 3 4 1 1 1 1 3 3 3 3 4 6 7 9 12 12 11 8 5 4 5 6 4 3 5 4 6 6 5 5 4 7 11 9 4 3 3 3 4 5 6 9 9 9 9 8 7 6 5 2 2 3 3 4 4 3 2 4 4 1 2 1 1 1 3 2 2 9 11 16 19 17 20 24 26 29 29 26 25 25
12 9 7 5 4 2 4 6 5 5 2 2 1 2 4 4 3 3 4 6 7 8 10 12 10 6 4 3 5 5 1 2 2 5 3 5 5 6 6 5 9 10 6 4 3 2 3 5 4 8 12 11 10 8 7 6 3 2 1 3 6 6 6 2 2 1 3 3 2 0 1 3 2 1 2 8 11 11 13 13 15 17 22 25 25 25 24 23
11 9 8 6 6 4 3 7 7 4 1 1 1 3 4 4 7 7 7 11 13 12 10 7 6 5 3 2 3 4 3 4 4 5 2 1 1 4 5 3 5 10 12 8 4 2 4 5 5 3 7 10 13 12 8 8 7 2 2 4 5 3 4 3 1 2 3 2 3 2 5 1 2 0 4 6 10 9 9 10 13 17 19 20 21 23 22 21
10 8 8 5 4 2 4 4 2 3 2 2 3 5 4 5 9 11 12 14 14 12 9 6 5 5 3 2 5 5 5 5 4 4 1 3 1 1 3 3 6 4 6 9 6 3 3 3 6 4 3 4 7 10 7 6 8 7 4 3 3 3 2 1 2 1 0 1 2 2 3 2 2 1 5 5 5 7 9 9 11 15 18 20 21 22 20 19
9 7 5 2 3 5 3 3 7 8 5 2 3 4 3 6 12 17 21 18 12 9 7 7 6 4 3 4 6 7 3 2 3 3 1 1 2 2 4 3 6 7 9 6 4 4 3 2 4 6 1 4 3 4 5 5 5 6 4 2 3 3 3 1 2 3 3 2 1 3 3 1 1 3 4 3 1 6 9 9 9 11 16 20 21 21 19 18
7 5 2 2 3 6 7 5 6 7 4 3 4 5 6 8 11 19 25 20 10 7 6 6 8 5 3 5 7 8 7 3 2 2 2 3 3 3 2 4 5 8 12 10 3 3 2 3 2 6 4 3 2 3 2 1 3 5 3 2 1 1 2 2 2 1 3 3 3 2 1 3 3 3 3 5 4 4 8 10 8 11 17 20 20 21 20 20
6 4 3 5 5 8 4 2 5 5 3 3 5 6 8 9 10 15 21 20 12 10 8 6 7 6 3 4 7 6 7 4 1 2 1 1 1 1 0 1 3 7 8 6 4 3 2 1 4 3 3 2 1 5 6 6 5 2 3 4 3 3 3 2 1 2 1 3 4 5 2 3 4 2 1 5 4 4 8 11 9 12 17 19 21 22 23 24
4 3 3 5 3 3 2 4 3 4 3 4 6 9 12 12 10 12 20 23 15 8 6 5 5 7 4 2 5 6 6 5 1 2 1 1 1 2 2 3 4 5 4 1 3 2 1 0 1 2 3 2 2 4 8 11 10 6 3 3 2 2 4 5 3 3 1 2 0 3 3 2 3 0 2 5 7 8 11 13 12 14 16 17 19 21 23 25
5 3 3 3 2 2 4 0 3 2 2 6 9 12 14 12 10 11 14 19 13 3 5 5 4 6 5 4 6 8 7 6 3 0 5 5 2 5 2 8 10 6 3 1 3 4 2 2 2 2 4 3 3 5 7 11 11 7 6 7 6 4 1 3 6 4 2 0 0 3 2 2 2 4 6 8 12 14 15 15 14 14 15 15 16 18 20 22
11 7 5 4 1 2 2 2 4 3 4 7 7 10 12 10 9 9 9 12 12 5 4 6 5 5 5 5 7 10 9 6 3 1 4 4 1 5 5 4 9 4 2 0 1 2 2 1 2 3 3 4 5 4 4 7 6 3 4 7 9 10 9 3 2 5 3 5 6 4 2 1 2 5 7 9 12 12 12 14 15 13 15 17 16 16 18 20
11 6 6 6 4 5 5 4 4 3 4 6 6 7 9 8 9 12 11 12 13 8 3 5 8 8 6 6 7 9 9 7 5 1 3 2 3 5 8 7 6 1 3 3 0 3 1 1 2 3 2 2 2 2 1 2 2 2 4 9 13 13 12 5 2 5 2 2 5 5 4 3 3 5 7 8 9 9 8 12 14 13 15 20 21 20 20 20
6 3 2 5 8 11 10 9 8 4 3 5 5 5 8 7 8 13 13 10 14 14 7 4 7 7 6 7 7 6 8 10 8 4 4 2 0 2 6 13 15 10 8 7 5 3 3 1 1 2 3 4 4 4 2 1 2 4 6 11 13 12 11 7 4 3 0 1 4 3 9 9 5 6 7 6 7 7 7 11 14 14 17 21 24 26 25 26
3 1 1 2 5 8 8 9 8 4 3 5 3 4 8 7 6 9 10 8 13 16 9 4 7 7 7 8 5 5 8 8 8 8 6 5 4 3 2 7 12 12 10 4 5 2 4 2 2 1 3 4 5 4 2 1 4 5 6 10 12 11 12 10 5 2 3 2 3 3 9 11 7 6 7 6 7 7 5 10 15 17 19 21 24 28 29 29
2 1 4 4 1 2 3 4 4 4 6 5 2 3 6 7 6 6 6 7 10 13 9 6 9 11 11 9 3 4 8 6 7 7 5 6 6 5 4 5 6 4 1 1 1 3 3 2 4 4 5 6 6 5 4 3 4 5 5 7 10 11 12 10 3 3 2 4 4 5 10 11 7 7 7 5 7 8 9 13 20 23 24 25 27 30 29 29
6 4 6 7 3 4 6 2 2 6 5 4 2 3 6 7 8 5 5 5 6 10 9 5 9 11 10 9 5 5 6 5 4 6 4 5 6 4 4 3 5 10 10 3 3 5 2 1 1 3 6 7 7 8 7 5 5 5 5 6 9 10 9 7 4 5 9 9 5 9 14 10 5 7 8 9 11 11 10 13 19 23 25 27 29 31 31 31
10 7 7 11 9 3 8 5 4 7 4 4 3 3 5 7 8 6 6 5 4 6 8 7 8 8 5 7 7 6 5 4 3 5 4 4 4 3 2 1 0 6 7 2 3 6 3 2 4 3 3 4 5 9 9 6 5 5 5 6 8 8 7 6 4 5 9 9 7 10 13 7 4 6 10 14 17 14 11 10 11 16 23 28 31 32 32 31
8 7 6 7 8 5 3 3 5 5 2 3 2 3 4 6 8 7 6 8 8 6 7 8 9 7 4 7 7 6 8 9 8 8 8 6 6 8 6 2 5 1 1 2 2 4 2 1 4 5 2 4 4 1 4 6 6 6 6 7 7 3 4 4 2 2 5 7 6 7 7 4 3 6 11 16 19 18 17 15 17 21 27 31 34 34 32 30
7 6 7 5 4 7 1 5 6 4 1 1 1 2 3 4 8 7 4 7 11 11 11 10 8 6 4 5 6 9 15 17 17 17 16 13 14 17 16 7 8 7 3 2 2 2 2 2 3 4 3 4 7 7 3 3 6 5 5 8 10 4 5 7 4 4 7 8 7 3 3 4 4 7 10 13 15 17 17 17 20 25 30 32 33 32 31 28
Wind_Direction
14 16 17 14 9 0 352 348 343 338 332 325 317 312 309 309 315 318 322 327 333 340 342 341 343 346 343 337 328 320 313 303 296 282 275 286 273 241 240 240 233 220 220 219 211 197 194 200 199 189 195 231 246 250 250 251 246 231 213 224 248 250 254 260 253 271 298 17 347 17 26 15 42 76 118 154 143 99 91 86 86 90 102 118 129 138 149 154
4 7 9 12 12 7 1 352 349 346 342 339 332 325 318 310 310 312 315 318 324 331 337 338 340 346 344 341 335 326 318 309 299 285 277 274 258 246 231 233 232 216 216 215 206 193 191 196 195 187 210 237 240 242 242 242 244 233 202 222 230 242 253 261 269 289 298 328 352 34 67 5 360 54 89 134 134 102 98 97 93 92 103 116 126 140 152 154
356 358 359 2 5 6 6 360 356 352 348 347 341 336 329 318 311 308 308 311 313 318 326 333 336 340 341 340 336 330 325 316 305 296 298 272 251 250 237 226 218 217 218 213 206 194 188 196 193 193 220 236 240 239 230 229 242 232 222 236 239 242 254 262 267 276 283 301 20 44 131 163 6 21 111 77 59 85 104 117 104 103 110 116 126 144 151 150
350 350 351 352 353 357 0 1 0 355 353 349 346 343 337 330 319 309 306 305 305 308 315 326 331 333 336 337 335 333 332 323 313 324 359 340 282 250 237 221 210 216 217 210 203 191 184 200 204 207 220 231 237 240 234 223 227 223 217 222 251 255 266 262 262 274 293 325 43 75 126 73 12 340 355 79 74 69 113 127 121 124 124 127 135 146 151 152
344 344 346 344 345 348 349 354 356 356 355 349 346 343 340 336 326 317 308 301 301 302 308 316 324 326 326 333 332 331 336 343 23 20 321 342 352 266 224 212 211 211 211 206 193 186 191 215 220 216 219 229 233 236 244 233 224 232 233 226 240 251 267 268 277 293 314 354 25 38 23 349 4 339 327 5 159 139 135 132 133 136 136 142 145 149 155 160
339 339 339 339 340 340 340 343 345 349 351 350 347 340 338 334 330 326 316 307 300 296 300 304 315 318 317 328 327 325 331 257 198 301 284 317 345 322 258 215 209 207 205 195 187 189 206 227 230 223 217 224 235 234 243 238 229 237 258 239 238 239 250 269 280 290 308 355 21 8 336 337 3 330 318 338 145 141 137 136 139 142 144 150 150 152 160 164
334 334 334 335 334 335 336 335 336 338 340 344 344 339 337 330 331 329 324 318 305 297 293 292 305 308 309 318 319 319 304 267 269 292 257 278 323 338 318 245 212 207 199 188 188 193 212 234 234 230 222 215 233 241 250 250 237 233 249 248 249 247 252 267 269 270 277 312 20 353 320 321 335 274 323 68 129 135 135 134 137 143 150 153 151 159 165 163
331 330 329 329 330 330 330 330 331 331 333 335 336 338 335 329 329 328 329 324 313 306 293 288 296 297 302 309 319 319 290 277 306 335 227 240 289 317 309 270 224 207 197 187 188 188 209 238 236 230 229 233 232 236 249 257 252 240 242 244 251 256 259 268 272 274 264 210 138 324 285 287 285 291 331 117 135 135 135 137 140 147 153 154 152 160 166 164
329 328 326 326 325 326 325 325 326 326 328 327 328 329 328 328 325 325 329 327 320 312 299 290 289 291 298 302 320 318 279 288 339 183 215 248 270 286 283 275 236 210 200 188 187 193 221 243 238 227 230 252 246 243 246 248 257 249 248 246 243 250 257 266 273 278 274 205 168 180 211 262 280 313 345 144 142 139 140 144 150 154 153 153 155 161 166 166
329 327 326 324 322 322 320 321 320 321 323 322 323 321 321 321 319 321 322 326 325 316 308 293 286 287 291 294 312 302 236 304 327 230 272 278 257 264 261 259 237 213 202 189 191 208 231 243 240 232 238 256 259 262 255 247 259 262 262 257 245 244 252 259 262 270 281 257 181 190 222 250 257 274 284 158 148 146 148 147 152 156 152 156 160 161 163 165
329 326 325 323 321 320 318 318 316 317 317 317 319 315 314 312 313 317 314 320 319 317 316 297 290 281 280 278 259 249 208 187 284 274 298 285 257 261 249 244 233 215 203 195 200 217 234 246 248 244 237 247 262 269 269 268 273 276 281 279 259 250 251 253 256 269 282 272 213 241 254 257 246 214 246 204 159 153 154 149 151 155 152 160 163 162 166 167
329 327 326 324 322 320 317 317 314 314 313 312 313 311 311 309 308 309 308 311 307 311 312 301 294 277 279 266 248 253 235 218 240 265 266 251 270 271 243 237 235 224 207 199 208 221 236 251 252 254 246 241 250 256 279 282 275 275 283 289 280 274 260 245 245 266 273 229 202 225 239 258 247 206 236 232 190 164 157 152 152 156 157 161 164 166 168 167
331 329 328 325 324 321 318 316 314 313 311 309 307 306 307 307 306 304 303 304 300 300 299 299 293 282 282 264 262 279 278 249 226 232 248 243 282 274 235 224 229 236 213 206 222 233 243 255 250 256 263 266 264 274 300 295 274 265 272 277 281 295 281 246 235 257 263 207 205 214 215 248 241 231 233 234 229 187 159 158 155 156 159 162 167 170 168 167
332 331 330 328 326 323 320 317 315 313 311 308 305 303 304 304 303 300 298 298 296 293 291 293 290 283 269 270 284 298 277 251 229 231 249 246 254 251 230 218 224 233 229 231 249 255 261 264 253 262 274 279 293 298 304 306 289 270 276 282 268 271 278 266 244 243 254 207 202 199 188 243 234 232 232 233 240 205 162 164 158 154 157 161 170 171 167 169
332 331 330 330 328 326 323 320 317 314 311 307 304 302 301 300 300 298 295 293 291 289 288 290 290 285 274 282 298 316 234 238 232 232 231 228 229 227 225 222 224 228 233 244 255 262 272 277 259 256 263 273 293 302 301 304 300 264 247 270 258 242 256 270 254 237 248 214 200 199 205 238 228 234 232 226 240 222 170 169 159 153 157 161 169 168 166 170
330 330 330 329 329 327 325 323 320 316 312 308 305 302 300 299 296 293 293 292 292 288 285 294 303 298 287 289 299 282 235 233 228 220 211 219 224 225 223 219 224 226 231 241 251 259 266 277 274 260 253 262 272 278 290 300 293 267 225 240 248 247 246 251 245 236 247 234 200 201 208 229 221 244 242 229 234 221 163 165 164 157 157 161 166 165 167 170
327 327 327 328 328 328 326 324 322 319 315 310 305 301 299 297 292 291 294 292 289 282 271 261 338 300 274 269 280 270 246 232 224 215 220 224 220 226 225 214 216 223 230 238 246 253 254 257 265 269 255 251 230 214 255 266 262 273 251 233 241 246 246 249 243 228 237 238 210 202 205 224 216 235 245 236 226 204 155 161 167 159 156 160 162 162 168 172
323 322 324 325 326 326 326 325 323 321 317 313 308 304 302 297 292 291 293 291 283 273 258 219 170 304 267 255 283 285 253 230 223 215 222 221 217 225 228 216 209 215 228 232 234 235 238 239 234 244 248 233 230 209 212 225 223 239 245 233 236 236 237 248 252 237 229 222 212 205 200 220 237 239 247 242 226 206 172 164 163 158 156 160 163 164 171 175
319 318 319 320 321 322 323 324 323 322 318 314 310 304 302 299 295 291 280 255 226 237 276 221 187 201 264 270 288 292 287 228 205 204 214 214 215 222 230 228 208 206 219 216 217 215 208 223 224 224 234 222 220 217 225 235 223 234 245 236 227 229 232 238 243 247 242 216 205 208 191 205 227 236 250 255 249 234 195 160 149 155 157 161 166 168 174 178
316 316 315 315 317 317 318 320 320 322 320 317 317 311 306 307 306 299 239 239 259 273 278 252 218 229 258 274 280 280 285 213 184 198 210 202 205 217 231 232 207 202 219 192 196 206 195 200 226 220 223 225 227 224 233 249 247 248 256 260 257 252 245 242 240 239 239 218 203 203 184 195 214 224 240 250 261 259 205 157 141 150 155 160 166 169 176 179
315 314 313 314 314 313 315 316 315 319 319 317 319 313 305 303 295 312 308 287 286 283 273 264 244 243 258 268 272 274 280 244 192 201 211 193 194 210 225 222 201 201 218 217 217 204 197 209 226 225 225 229 235 228 224 239 253 259 263 276 278 278 272 265 266 252 235 218 203 194 181 196 205 214 232 239 256 256 181 150 143 152 156 162 166 170 178 180
315 314 315 317 316 315 314 311 313 316 317 323 319 308 307 306 288 310 316 298 290 286 270 265 257 251 257 261 263 268 273 260 204 196 202 190 188 198 208 197 197 225 204 218 241 201 200 232 230 223 225 231 239 238 227 228 244 257 263 276 277 279 288 284 285 274 248 210 193 186 186 205 201 209 223 219 221 202 168 153 153 158 160 165 169 173 180 179
317 319 321 321 320 319 315 312 316 313 317 327 316 309 328 331 328 326 317 293 291 288 269 257 249 246 251 251 252 254 256 256 220 193 191 188 189 196 201 185 195 225 206 202 220 209 215 233 223 220 228 233 238 241 236 228 237 243 237 257 267 264 275 281 289 285 267 194 165 168 179 226 209 209 226 221 198 187 183 170 161 166 169 168 172 177 180 177
321 323 324 325 325 323 320 317 313 306 309 317 319 334 344 344 346 332 317 293 289 286 276 261 245 239 241 241 240 239 241 247 237 201 188 189 192 196 207 213 200 217 225 207 207 217 241 238 215 212 227 232 237 243 238 217 228 242 226 224 250 263 266 273 300 318 335 356 107 114 83 314 252 207 244 255 216 188 191 178 156 164 169 166 172 178 178 179
323 324 326 327 326 326 326 322 308 294 293 305 344 354 352 357 342 330 321 300 269 279 284 271 241 236 236 233 226 222 229 237 236 223 193 187 191 192 204 220 212 214 223 218 215 216 240 242 217 205 222 229 232 241 236 209 212 267 239 218 237 267 277 289 309 335 357 330 356 84 79 302 291 239 265 276 245 206 189 171 139 150 159 162 167 171 174 175
323 323 327 328 326 328 326 325 311 293 284 292 343 357 357 3 337 323 324 311 262 268 276 234 210 227 226 216 209 207 218 229 226 230 210 189 190 193 198 214 214 219 221 221 225 211 230 239 225 209 214 217 223 236 231 202 187 261 257 246 250 262 271 279 297 314 340 278 278 92 120 257 309 293 267 254 232 228 181 153 128 141 154 160 163 166 168 157
323 322 327 326 327 328 323 327 316 297 291 287 318 355 344 334 330 324 338 358 273 249 217 174 184 203 205 195 192 191 206 218 209 221 219 194 189 196 206 215 207 220 227 225 229 213 212 226 234 228 214 210 218 227 206 168 163 226 247 275 273 268 262 255 263 271 250 235 251 149 125 170 295 284 272 260 238 239 166 140 126 140 153 158 161 165 161 143
323 322 323 324 328 327 319 326 322 309 312 296 295 326 315 308 321 336 60 58 300 269 163 153 173 179 193 181 178 182 208 210 183 210 217 200 189 191 204 227 228 228 227 222 235 229 205 208 226 240 238 231 215 194 175 154 165 232 222 250 263 268 266 250 231 249 249 175 269 257 128 126 275 270 282 288 270 248 183 154 145 144 149 155 158 156 148 137
321 321 320 319 326 324 311 320 331 341 358 337 286 297 298 299 316 2 89 173 294 297 152 157 165 183 205 176 174 187 212 230 222 198 198 192 192 194 208 229 240 261 257 251 246 238 216 203 213 229 236 236 207 163 161 161 196 224 220 240 257 268 274 260 225 220 119 175 249 258 144 120 280 273 283 314 291 241 210 159 146 143 147 156 149 131 133 134
319 320 318 315 321 317 301 313 336 16 14 7 315 294 296 305 359 77 201 234 283 275 160 147 158 176 194 187 178 188 206 241 252 201 175 172 189 205 232 236 236 263 271 266 257 253 252 227 218 217 215 243 265 181 180 209 222 216 215 235 258 268 275 269 228 164 108 217 239 240 174 141 244 279 255 145 282 246 176 115 127 141 145 151 134 119 129 133
317 318 314 312 315 305 297 307 326 59 12 356 319 313 314 314 59 145 219 279 288 260 199 153 172 170 186 201 189 189 202 239 253 219 172 160 184 202 226 246 243 257 274 279 268 257 250 239 236 195 187 201 265 251 232 230 225 219 214 211 236 281 304 308 258 158 140 245 227 194 204 173 191 270 260 164 334 328 129 124 130 139 136 136 124 119 127 128
316 315 310 309 307 298 295 297 233 212 270 305 305 321 21 94 222 211 252 315 291 233 131 192 202 178 187 201 202 197 191 220 243 229 182 156 168 193 188 207 216 210 269 285 277 259 243 232 254 206 181 181 192 234 253 254 227 215 221 191 194 286 348 322 241 190 191 240 209 187 205 211 207 252 273 48 29 50 125 139 140 137 126 116 117 122 125 124
318 312 308 304 301 298 295 288 241 223 243 283 303 317 40 105 213 221 233 280 273 296 351 326 266 225 195 196 214 210 186 205 233 219 186 167 170 192 194 207 213 182 219 251 254 266 279 263 256 235 164 169 192 211 220 251 230 201 201 170 174 203 43 280 252 209 211 224 209 201 209 228 258 342 68 61 49 77 107 130 134 134 125 110 113 125 126 124
324 314 311 311 310 310 305 283 243 223 251 294 309 7 117 199 239 230 225 248 276 301 315 306 297 293 244 206 217 221 202 210 220 195 164 160 192 208 192 208 223 215 203 236 245 218 241 264 247 244 190 167 193 222 215 240 249 193 176 151 162 165 163 232 226 180 217 250 245 225 215 196 190 217 106 85 62 76 90 107 119 122 120 113 115 124 125 122
331 313 304 319 332 0 40 17 214 178 112 293 296 115 184 222 249 248 251 253 263 287 296 296 294 281 256 225 203 213 218 220 248 236 178 164 193 218 196 201 216 221 208 206 235 229 236 247 215 217 219 180 184 217 224 260 299 267 165 148 196 187 173 222 206 170 174 56 336 250 243 235 171 228 111 98 75 69 82 91 103 117 123 120 120 127 127 121
335 312 293 310 329 346 56 54 73 97 95 261 261 212 218 235 255 254 281 280 273 292 308 311 301 274 259 247 209 212 192 108 296 288 228 169 183 217 221 201 200 210 206 185 218 227 226 256 240 212 217 203 190 195 203 216 249 300 235 195 222 188 145 156 273 286 103 97 297 127 84 331 36 339 344 90 84 65 68 71 80 103 120 124 126 131 131 121
343 316 295 299 294 284 61 61 60 68 28 268 233 242 246 255 259 263 286 293 297 309 318 314 302 298 300 287 252 231 169 142 194 234 265 34 218 250 252 241 215 211 210 211 239 258 216 255 295 244 219 222 202 188 205 201 164 147 258 214 214 161 108 109 155 340 40 110 263 135 126 51 55 296 320 51 75 71 68 66 61 66 85 105 116 122 125 120
353 328 312 305 269 204 103 87 149 196 252 273 251 258 268 263 267 277 288 293 300 309 312 300 294 306 308 316 310 271 188 151 175 200 325 2 323 13 26 320 293 269 238 229 231 258 232 260 297 267 209 264 215 182 213 227 170 173 212 178 125 110 75 35 144 177 196 198 295 41 103 80 66 310 325 9 67 86 76 68 64 60 69 87 102 111 116 119
2 344 337 32 145 158 168 250 220 207 226 248 246 261 268 263 265 270 275 281 290 294 293 288 288 295 296 300 311 303 278 148 156 169 88 357 254 310 32 340 300 327 341 316 243 236 209 155 292 289 51 7 318 182 200 237 208 204 212 108 92 137 147 145 175 170 168 191 322 9 351 1 356 316 347 356 20 99 92 74 68 67 69 80 98 113 116 118
351 323 287 157 209 241 268 270 202 195 222 236 241 258 263 266 267 264 267 269 269 267 271 285 297 304 309 319 324 326 332 340 150 152 168 173 209 276 18 18 317 318 338 348 356 297 293 135 211 292 356 42 323 270 208 219 247 226 200 160 147 124 117 138 205 186 140 154 154 128 276 273 272 304 17 41 17 56 92 88 77 74 75 80 96 114 124 124
328 288 216 174 231 266 274 153 162 192 234 244 246 258 267 279 285 284 288 290 281 270 277 290 307 307 288 322 331 325 325 324 114 95 25 152 144 244 148 82 304 323 342 356 15 7 346 150 186 247 326 89 161 315 350 17 346 267 189 201 180 135 118 121 289 302 79 124 161 152 165 276 270 270 33 64 44 26 67 84 80 73 79 83 90 108 124 126
313 254 175 168 245 288 138 141 202 219 212 257 274 278 285 292 301 311 314 309 293 276 303 320 328 323 310 310 317 308 312 322 1 87 89 107 132 205 268 345 345 353 18 25 320 335 117 158 196 218 250 167 132 341 5 21 3 360 42 3 353 105 129 140 178 257 355 37 73 113 108 278 281 122 86 79 72 46 49 73 83 77 82 87 90 101 118 123
312 284 157 139 47 115 153 224 315 277 264 300 298 297 301 303 306 317 321 313 306 335 0 335 326 332 335 348 338 320 302 296 308 224 165 164 186 207 205 33 32 19 25 81 297 315 357 24 1 316 306 339 11 2 27 36 22 14 26 22 15 7 21 159 171 166 133 131 29 78 101 257 332 60 71 69 66 52 42 52 65 74 84 88 88 94 106 118
314 291 181 155 60 153 168 349 336 313 314 322 326 321 311 302 304 319 325 317 319 345 3 340 334 330 332 351 341 316 299 289 308 29 141 153 177 206 202 67 58 44 351 173 227 322 344 17 45 21 352 346 337 340 17 26 29 24 356 16 24 14 11 14 137 108 123 186 159 130 161 202 71 70 71 67 67 60 46 47 55 70 83 82 80 86 97 110
321 299 163 139 79 71 64 22 340 325 340 341 335 325 315 310 325 338 332 316 317 323 326 330 330 328 336 343 324 312 319 329 321 358 94 112 163 193 204 172 126 86 295 276 274 78 80 202 91 83 148 185 234 238 247 323 9 12 354 21 29 21 17 14 113 90 83 184 132 127 149 133 87 79 79 79 83 77 67 69 69 72 84 86 87 89 92 95
324 324 116 97 64 61 53 26 17 18 359 347 332 324 337 337 336 344 343 332 331 331 319 306 323 333 339 329 314 314 328 331 334 16 51 18 173 203 193 165 160 185 225 274 316 60 79 356 72 128 194 189 189 188 189 182 75 39 12 28 34 28 27 38 71 78 12 59 63 124 142 127 121 114 102 97 95 85 78 87 82 69 71 80 83 84 83 79
297 313 82 71 32 40 40 25 28 31 354 3 353 326 349 350 337 349 355 349 346 347 345 339 348 2 351 329 322 333 329 334 6 30 26 351 341 315 267 147 151 177 194 245 321 59 82 7 308 271 255 221 197 174 148 94 75 57 34 35 39 37 39 52 66 289 263 102 78 146 132 120 128 135 129 126 109 102 104 107 106 98 93 91 87 82 79 74
315 56 78 79 25 51 49 11 22 39 17 15 7 326 353 2 1 2 349 346 0 5 7 350 354 14 8 347 0 10 347 1 28 21 12 0 354 334 341 45 65 46 100 171 13 64 90 199 215 217 216 209 192 163 138 122 100 75 56 51 52 49 50 60 58 309 348 102 151 158 116 107 123 128 127 138 128 131 143 135 128 125 121 115 104 93 84 79
12 26 37 21 353 164 153 179 98 77 32 0 19 351 349 2 11 14 353 358 13 8 13 7 352 5 7 358 32 50 10 12 10 350 353 357 343 320 333 22 27 9 10 26 44 39 24 261 251 225 218 205 181 167 157 148 141 132 123 99 79 72 70 69 42 21 50 62 90 112 99 86 101 113 111 120 124 130 137 133 131 130 126 117 105 95 87 82
15 8 356 349 335 200 164 167 121 96 36 355 34 4 344 3 9 4 1 20 33 359 10 20 356 354 7 9 29 45 16 357 329 314 321 344 335 295 316 68 11 0 17 38 17 30 36 308 353 358 258 240 193 169 160 154 152 147 134 104 85 88 89 80 54 45 59 49 41 85 98 87 69 90 99 104 104 94 78 77 93 106 111 107 97 91 88 84
21 18 9 357 326 288 158 86 61 86 53 351 34 17 358 358 357 355 357 11 22 9 359 6 359 354 7 15 22 12 344 331 308 294 297 305 294 279 282 177 153 155 71 110 25 40 66 332 2 32 20 314 319 89 137 135 117 89 56 27 10 39 108 110 105 81 103 105 75 64 86 107 119 107 93 86 81 72 62 57 62 75 88 94 91 89 89 87
29 38 19 15 308 292 352 80 56 50 21 309 31 45 29 355 355 7 8 360 6 1 355 1 1 352 0 14 5 334 319 311 301 296 292 282 273 276 282 260 171 163 148 112 105 101 122 112 41 40 42 333 335 352 14 80 81 55 11 343 322 300 132 114 97 106 123 128 121 105 113 130 128 105 86 74 70 68 63 62 70 78 85 88 88 88 89 87
Height
1504 1504 1503 1502 1501 1501 1500 1499 1498 1498 1497 1496 1496 1495 1495 1495 1494 1494 1493 1492 1492 1491 1490 1489 1488 1487 1485 1484 1483 1481 1480 1479 1478 1477 1475 1473 1474 1474 1474 1475 1476 1477 1477 1478 1479 1480 1481 1482 1484 1486 1488 1489 1489 1488 1487 1487 1487 1488 1488 1492 1494 1490 1484 1475 1470 1468 1466 1465 1460 1456 1453 1454 1456 1456 1456 1458 1461 1463 1465 1469 1471 1473 1474 1475 1477 1479 1481 1484
1504 1504 1503 1502 1501 1500 1499 1499 1498 1497 1496 1496 1495 1494 1494 1494 1493 1493 1493 1492 1491 1491 1490 1489 1488 1486 1485 1484 1482 1481 1479 1478 1476 1474 1472 1472 1472 1472 1473 1473 1474 1476 1476 1477 1478 1479 1480 1482 1483 1486 1487 1487 1487 1486 1486 1485 1484 1485 1485 1489 1489 1483 1475 1469 1467 1466 1465 1465 1459 1456 1455 1454 1456 1456 1458 1459 1461 1463 1467 1471 1472 1474 1478 1479 1479 1480 1483 1485
1504 1504 1503 1502 1501 1500 1499 1498 1497 1497 1496 1495 1494 1493 1493 1493 1492 1492 1492 1491 1491 1491 1490 1489 1488 1486 1485 1483 1482 1480 1478 1476 1473 1471 1471 1471 1471 1471 1472 1472 1473 1475 1475 1476 1478 1479 1480 1482 1484 1485 1487 1486 1486 1485 1485 1484 1483 1481 1483 1486 1482 1475 1471 1466 1466 1466 1464 1463 1459 1457 1456 1456 1456 1456 1457 1459 1461 1464 1468 1471 1472 1474 1479 1481 1481 1481 1484 1487
1504 1503 1503 1502 1501 1500 1499 1498 1497 1496 1495 1495 1494 1493 1492 1492 1491 1491 1491 1491 1490 1490 1489 1488 1487 1486 1485 1483 1482 1480 1478 1475 1471 1470 1470 1470 1470 1470 1471 1471 1472 1474 1475 1476 1478 1479 1481 1483 1484 1485 1486 1485 1484 1484 1483 1482 1482 1479 1479 1482 1476 1472 1471 1464 1464 1465 1463 1461 1458 1456 1456 1457 1457 1456 1457 1458 1463 1467 1469 1471 1471 1473 1476 1479 1480 1481 1484 1487
1504 1503 1502 1501 1500 1499 1498 1498 1497 1496 1495 1494 1493 1492 1492 1491 1491 1490 1490 1490 1489 1489 1488 1488 1487 1486 1485 1483 1482 1480 1479 1477 1471 1470 1471 1470 1471 1470 1470 1471 1472 1473 1474 1476 1477 1479 1480 1482 1484 1484 1484 1483 1482 1482 1481 1479 1479 1477 1475 1475 1471 1471 1469 1462 1463 1466 1463 1460 1457 1456 1457 1458 1457 1456 1457 1459 1464 1468 1467 1469 1472 1473 1475 1476 1479 1481 1483 1486
1503 1502 1502 1501 1500 1499 1498 1497 1496 1495 1494 1494 1493 1492 1491 1491 1490 1490 1489 1489 1488 1488 1488 1487 1486 1485 1484 1483 1482 1480 1481 1476 1470 1471 1471 1471 1471 1470 1471 1471 1471 1472 1474 1475 1476 1478 1479 1480 1482 1482 1482 1481 1481 1480 1479 1476 1477 1477 1474 1471 1468 1468 1466 1462 1463 1465 1462 1460 1458 1458 1458 1458 1460 1459 1459 1458 1461 1465 1465 1466 1470 1472 1474 1477 1479 1482 1483 1485
1502 1501 1501 1500 1499 1498 1497 1497 1496 1495 1494 1493 1492 1491 1491 1490 1490 1489 1488 1488 1487 1487 1486 1486 1485 1485 1484 1484 1482 1480 1480 1474 1468 1470 1470 1471 1471 1470 1471 1471 1471 1472 1473 1474 1475 1476 1477 1478 1479 1479 1479 1480 1479 1478 1476 1475 1474 1475 1473 1469 1466 1466 1464 1462 1462 1462 1461 1460 1458 1460 1459 1458 1461 1461 1460 1461 1461 1464 1466 1466 1469 1470 1472 1476 1480 1482 1483 1485
1501 1501 1500 1499 1498 1497 1497 1496 1495 1494 1493 1493 1492 1491 1490 1490 1489 1488 1488 1487 1486 1486 1485 1485 1485 1484 1483 1483 1481 1480 1477 1471 1468 1469 1470 1471 1471 1471 1471 1471 1471 1471 1472 1473 1474 1475 1476 1477 1477 1477 1478 1477 1477 1476 1474 1474 1472 1472 1471 1467 1465 1463 1462 1461 1461 1459 1459 1459 1457 1459 1461 1460 1461 1462 1462 1463 1464 1464 1465 1466 1468 1470 1472 1475 1479 1481 1482 1484
1501 1500 1499 1498 1497 1496 1496 1495 1494 1493 1493 1492 1491 1490 1490 1489 1488 1488 1487 1486 1485 1485 1484 1484 1484 1483 1482 1482 1481 1479 1472 1468 1468 1468 1470 1470 1471 1471 1471 1471 1471 1471 1471 1473 1474 1475 1476 1476 1476 1476 1476 1475 1475 1474 1472 1473 1472 1468 1467 1465 1463 1461 1460 1460 1459 1458 1458 1458 1457 1458 1461 1461 1461 1462 1463 1463 1464 1464 1465 1466 1467 1469 1472 1474 1478 1480 1481 1483
1500 1499 1498 1497 1496 1495 1494 1494 1493 1492 1492 1491 1490 1490 1489 1488 1487 1487 1486 1485 1484 1484 1483 1483 1482 1482 1482 1480 1481 1479 1470 1467 1468 1468 1470 1470 1470 1470 1470 1471 1470 1470 1471 1472 1473 1474 1474 1474 1474 1475 1475 1474 1473 1472 1470 1471 1469 1465 1464 1462 1461 1459 1458 1458 1457 1456 1457 1457 1457 1458 1461 1461 1460 1463 1465 1463 1463 1464 1465 1466 1467 1468 1471 1474 1477 1480 1481 1484
1499 1498 1497 1496 1495 1494 1493 1493 1492 1491 1491 1490 1489 1489 1488 1487 1486 1486 1485 1484 1483 1483 1482 1482 1481 1481 1480 1479 1480 1476 1467 1467 1469 1468 1469 1469 1469 1469 1469 1470 1470 1470 1470 1472 1473 1473 1473 1473 1473 1474 1474 1473 1472 1470 1468 1467 1466 1464 1463 1461 1459 1457 1456 1456 1455 1455 1456 1456 1456 1458 1460 1460 1460 1462 1463 1462 1462 1462 1464 1466 1467 1467 1470 1473 1477 1479 1481 1484
1498 1497 1496 1495 1494 1493 1492 1491 1491 1490 1489 1489 1488 1487 1487 1486 1485 1484 1484 1483 1482 1482 1481 1481 1480 1479 1479 1477 1474 1469 1466 1467 1468 1469 1469 1468 1468 1469 1469 1469 1469 1469 1470 1471 1472 1471 1472 1472 1472 1473 1472 1471 1471 1470 1468 1466 1465 1462 1462 1463 1459 1457 1456 1454 1453 1454 1455 1456 1455 1457 1463 1463 1461 1461 1459 1459 1462 1461 1462 1465 1466 1467 1469 1473 1476 1479 1481 1483
1497 1496 1495 1494 1493 1492 1491 1490 1489 1489 1488 1487 1486 1486 1485 1484 1484 1483 1482 1482 1481 1481 1480 1480 1479 1478 1478 1473 1466 1464 1465 1465 1465 1466 1468 1468 1467 1468 1469 1469 1469 1469 1470 1470 1470 1470 1472 1472 1472 1471 1470 1470 1469 1469 1467 1464 1463 1462 1461 1462 1462 1462 1459 1453 1452 1454 1454 1455 1453 1458 1469 1469 1461 1459 1457 1457 1459 1460 1462 1463 1465 1465 1468 1472 1475 1477 1480 1482
1497 1496 1494 1493 1492 1491 1490 1489 1488 1487 1487 1486 1485 1484 1484 1483 1482 1482 1481 1481 1480 1480 1479 1479 1478 1477 1475 1467 1461 1463 1463 1463 1464 1463 1465 1467 1466 1467 1468 1468 1469 1469 1469 1469 1469 1469 1471 1471 1471 1469 1469 1469 1467 1468 1467 1464 1463 1462 1462 1462 1464 1467 1463 1453 1452 1453 1454 1454 1451 1457 1469 1467 1459 1456 1455 1455 1455 1456 1460 1462 1463 1464 1466 1471 1474 1476 1478 1480
1496 1495 1494 1493 1491 1490 1489 1488 1487 1486 1485 1484 1483 1483 1482 1481 1481 1480 1480 1479 1479 1478 1477 1478 1477 1476 1474 1465 1459 1461 1461 1461 1461 1460 1463 1465 1465 1466 1467 1467 1468 1468 1469 1469 1469 1469 1469 1469 1469 1468 1468 1468 1468 1469 1469 1467 1465 1463 1467 1469 1465 1466 1464 1455 1452 1452 1453 1453 1449 1455 1466 1464 1457 1454 1452 1453 1453 1453 1458 1460 1461 1462 1465 1469 1473 1475 1477 1479
1495 1494 1493 1492 1491 1490 1488 1487 1486 1485 1484 1482 1482 1481 1480 1480 1478 1478 1478 1477 1477 1477 1476 1477 1476 1476 1473 1464 1458 1458 1459 1459 1458 1460 1462 1463 1464 1465 1466 1467 1467 1468 1469 1469 1469 1469 1468 1468 1467 1467 1467 1468 1469 1471 1473 1474 1470 1464 1468 1472 1467 1465 1465 1458 1452 1449 1450 1451 1448 1452 1461 1460 1455 1451 1449 1451 1450 1450 1454 1458 1459 1461 1464 1468 1472 1473 1475 1477
1494 1493 1492 1491 1490 1489 1487 1486 1485 1483 1482 1481 1480 1479 1478 1478 1476 1476 1475 1475 1475 1474 1475 1476 1475 1476 1469 1460 1458 1457 1456 1456 1457 1460 1461 1462 1463 1463 1465 1466 1466 1468 1468 1468 1469 1468 1468 1468 1467 1467 1467 1468 1468 1471 1478 1482 1478 1470 1467 1468 1465 1462 1463 1461 1454 1447 1446 1449 1449 1449 1454 1456 1453 1449 1447 1448 1449 1449 1450 1454 1456 1459 1463 1468 1470 1472 1474 1476
1493 1492 1491 1490 1489 1488 1486 1485 1483 1482 1481 1479 1478 1477 1476 1476 1474 1473 1473 1473 1473 1473 1475 1474 1475 1476 1465 1455 1456 1454 1453 1455 1456 1458 1459 1460 1462 1462 1463 1464 1465 1466 1466 1467 1467 1466 1468 1466 1466 1468 1468 1468 1468 1471 1479 1480 1475 1472 1469 1468 1464 1460 1460 1459 1454 1446 1443 1446 1449 1450 1453 1453 1450 1447 1444 1444 1447 1447 1447 1449 1453 1457 1461 1465 1468 1469 1472 1473
1492 1491 1490 1489 1487 1486 1485 1484 1482 1481 1479 1478 1477 1476 1475 1473 1472 1471 1471 1471 1471 1472 1472 1470 1470 1470 1460 1453 1454 1453 1452 1453 1454 1456 1457 1458 1460 1461 1461 1462 1463 1464 1465 1466 1466 1465 1466 1466 1468 1470 1469 1468 1467 1467 1470 1468 1465 1465 1463 1463 1463 1461 1458 1453 1448 1442 1440 1445 1446 1447 1451 1451 1448 1446 1442 1441 1444 1446 1447 1448 1450 1455 1459 1463 1466 1467 1469 1470
1491 1490 1488 1487 1486 1485 1484 1483 1481 1480 1478 1477 1476 1475 1473 1472 1471 1470 1469 1469 1467 1466 1466 1464 1463 1460 1455 1453 1452 1452 1453 1453 1453 1454 1455 1457 1459 1460 1460 1461 1462 1462 1463 1464 1465 1463 1464 1468 1469 1468 1467 1465 1463 1462 1462 1461 1460 1459 1458 1459 1458 1458 1456 1449 1443 1437 1434 1442 1443 1441 1446 1447 1445 1444 1440 1439 1441 1443 1445 1448 1450 1454 1458 1462 1464 1466 1468 1469
1489 1488 1487 1486 1485 1483 1483 1481 1480 1479 1477 1476 1475 1474 1473 1472 1472 1471 1469 1465 1461 1461 1460 1459 1459 1455 1452 1452 1450 1451 1453 1453 1452 1452 1453 1455 1457 1458 1458 1458 1460 1462 1462 1462 1463 1462 1463 1468 1466 1463 1462 1461 1460 1459 1459 1459 1459 1458 1459 1460 1458 1457 1454 1445 1440 1434 1430 1437 1440 1438 1442 1444 1442 1442 1438 1438 1441 1440 1440 1444 1449 1453 1457 1460 1463 1466 1467 1468
1488 1487 1485 1484 1483 1482 1481 1480 1479 1478 1476 1475 1474 1474 1472 1472 1472 1471 1470 1463 1456 1457 1457 1454 1455 1452 1448 1449 1448 1449 1453 1451 1451 1451 1451 1453 1455 1456 1456 1456 1459 1461 1460 1461 1463 1464 1466 1466 1461 1458 1458 1458 1458 1456 1457 1458 1457 1458 1458 1460 1460 1456 1451 1444 1436 1430 1428 1433 1437 1436 1440 1441 1439 1438 1437 1436 1438 1439 1439 1442 1447 1450 1454 1458 1461 1463 1465 1467
1487 1485 1484 1483 1481 1481 1479 1478 1478 1476 1476 1475 1473 1473 1472 1471 1470 1471 1471 1466 1454 1450 1451 1449 1447 1446 1444 1445 1445 1447 1449 1447 1448 1448 1448 1451 1452 1453 1454 1455 1458 1459 1459 1460 1463 1467 1468 1461 1454 1454 1455 1456 1456 1454 1455 1457 1456 1457 1457 1460 1460 1452 1452 1452 1441 1430 1427 1428 1431 1434 1438 1439 1437 1437 1435 1434 1435 1436 1437 1440 1443 1446 1448 1452 1456 1459 1462 1465
1485 1484 1483 1481 1480 1479 1477 1477 1476 1475 1475 1473 1473 1472 1471 1470 1471 1471 1469 1467 1457 1444 1440 1440 1440 1440 1437 1439 1442 1444 1445 1444 1444 1444 1445 1448 1450 1452 1454 1453 1456 1457 1457 1457 1458 1463 1461 1452 1449 1451 1452 1452 1454 1453 1453 1456 1458 1455 1453 1456 1456 1450 1449 1452 1445 1437 1432 1427 1426 1433 1443 1443 1438 1439 1437 1433 1434 1435 1436 1438 1442 1445 1447 1451 1455 1458 1460 1463
1483 1483 1481 1480 1479 1477 1476 1476 1474 1475 1474 1472 1472 1471 1472 1471 1470 1471 1468 1467 1461 1443 1433 1434 1434 1433 1431 1435 1440 1440 1441 1441 1441 1442 1442 1444 1447 1450 1451 1452 1454 1455 1454 1453 1454 1457 1453 1446 1445 1449 1449 1449 1451 1451 1449 1452 1455 1455 1451 1449 1449 1447 1446 1448 1447 1447 1448 1441 1429 1432 1453 1455 1441 1439 1440 1435 1435 1436 1436 1439 1442 1445 1448 1452 1456 1459 1461 1464
1482 1481 1480 1479 1478 1476 1476 1474 1473 1474 1472 1471 1472 1470 1472 1471 1470 1471 1468 1471 1465 1442 1430 1430 1428 1426 1426 1431 1436 1438 1442 1439 1436 1441 1441 1441 1444 1446 1448 1449 1449 1450 1450 1448 1450 1451 1446 1442 1442 1444 1446 1446 1448 1448 1445 1446 1453 1455 1449 1444 1444 1443 1445 1448 1449 1453 1459 1453 1435 1432 1452 1461 1447 1440 1440 1437 1438 1437 1436 1439 1442 1445 1449 1452 1455 1458 1462 1466
1481 1479 1478 1478 1476 1475 1474 1473 1474 1473 1470 1471 1470 1470 1470 1468 1469 1469 1469 1477 1464 1434 1425 1427 1424 1425 1424 1427 1430 1436 1441 1436 1433 1437 1437 1439 1442 1443 1447 1447 1447 1447 1443 1445 1450 1447 1439 1440 1440 1439 1442 1444 1446 1446 1441 1441 1450 1452 1444 1442 1444 1443 1444 1447 1448 1453 1454 1448 1441 1435 1443 1457 1457 1446 1438 1437 1439 1439 1439 1441 1444 1446 1448 1452 1455 1458 1463 1466
1479 1478 1477 1476 1476 1475 1473 1472 1472 1471 1471 1470 1469 1471 1469 1467 1470 1468 1474 1481 1455 1424 1422 1425 1423 1424 1423 1425 1427 1430 1433 1431 1432 1434 1433 1437 1440 1441 1445 1444 1444 1443 1438 1444 1452 1444 1434 1437 1438 1436 1439 1442 1441 1439 1437 1438 1444 1445 1440 1441 1443 1442 1442 1441 1445 1449 1446 1447 1453 1445 1441 1458 1463 1448 1439 1438 1440 1442 1442 1442 1444 1446 1448 1451 1455 1459 1463 1466
1478 1476 1475 1475 1475 1474 1472 1472 1471 1470 1471 1469 1469 1470 1467 1469 1470 1468 1478 1477 1444 1422 1423 1423 1423 1425 1423 1425 1426 1427 1429 1429 1431 1431 1430 1435 1437 1438 1441 1441 1441 1441 1438 1441 1445 1438 1432 1432 1432 1432 1437 1438 1434 1432 1432 1436 1440 1439 1438 1440 1440 1441 1440 1439 1443 1446 1448 1457 1461 1449 1443 1459 1465 1449 1442 1444 1442 1442 1442 1442 1444 1446 1448 1452 1456 1460 1463 1466
1477 1475 1474 1473 1473 1473 1471 1471 1470 1470 1469 1468 1469 1468 1468 1471 1470 1475 1485 1469 1439 1426 1424 1422 1424 1423 1423 1426 1427 1427 1428 1429 1428 1428 1430 1433 1435 1437 1438 1439 1439 1440 1439 1438 1437 1433 1429 1427 1427 1428 1431 1432 1430 1430 1430 1433 1436 1436 1438 1440 1441 1442 1440 1440 1441 1441 1454 1465 1459 1447 1443 1455 1466 1454 1445 1448 1445 1439 1440 1445 1449 1448 1450 1454 1457 1462 1464 1467
1475 1474 1473 1471 1471 1471 1470 1469 1470 1470 1469 1468 1469 1468 1470 1470 1470 1481 1479 1454 1436 1428 1421 1423 1423 1420 1423 1426 1428 1428 1428 1429 1427 1428 1430 1431 1435 1438 1438 1440 1440 1441 1442 1440 1438 1433 1428 1428 1428 1425 1426 1427 1429 1431 1431 1431 1432 1435 1438 1441 1448 1449 1444 1447 1445 1443 1461 1470 1455 1445 1442 1453 1467 1457 1445 1446 1441 1436 1439 1445 1450 1451 1452 1456 1460 1463 1466 1469
1474 1473 1471 1470 1470 1469 1469 1468 1469 1469 1468 1469 1469 1469 1470 1472 1476 1479 1465 1447 1439 1427 1419 1423 1421 1419 1422 1423 1426 1426 1427 1429 1426 1426 1428 1430 1436 1438 1439 1442 1442 1447 1451 1446 1442 1436 1430 1428 1426 1425 1424 1425 1430 1435 1435 1432 1432 1436 1438 1443 1454 1460 1460 1463 1459 1454 1464 1464 1449 1442 1444 1455 1462 1452 1445 1445 1440 1438 1440 1440 1444 1449 1453 1457 1461 1464 1467 1470
1472 1471 1470 1469 1468 1467 1467 1467 1467 1468 1468 1468 1469 1469 1471 1478 1477 1468 1457 1451 1440 1422 1419 1424 1419 1417 1420 1422 1425 1423 1424 1428 1425 1425 1426 1427 1435 1436 1436 1437 1436 1444 1449 1445 1444 1442 1438 1431 1425 1426 1425 1423 1429 1436 1440 1437 1433 1436 1439 1444 1455 1464 1473 1477 1467 1462 1464 1457 1445 1439 1446 1458 1459 1450 1446 1445 1442 1441 1441 1440 1441 1445 1451 1456 1460 1464 1468 1471
1470 1469 1468 1467 1466 1466 1465 1466 1466 1466 1467 1468 1470 1470 1475 1480 1470 1456 1453 1450 1436 1424 1424 1423 1419 1419 1418 1421 1424 1421 1424 1427 1422 1422 1426 1430 1437 1437 1436 1435 1434 1438 1442 1443 1444 1444 1448 1444 1431 1428 1427 1424 1426 1431 1434 1433 1430 1431 1430 1436 1448 1454 1465 1472 1466 1465 1465 1457 1447 1443 1451 1461 1461 1454 1446 1443 1443 1442 1443 1446 1445 1446 1451 1456 1461 1465 1469 1471
1469 1468 1467 1466 1466 1466 1465 1465 1465 1466 1468 1469 1470 1473 1476 1475 1464 1455 1453 1445 1437 1432 1427 1422 1420 1421 1420 1418 1419 1418 1422 1426 1424 1423 1425 1432 1437 1436 1435 1434 1433 1434 1439 1446 1444 1438 1445 1443 1427 1422 1423 1421 1424 1425 1425 1430 1434 1431 1425 1433 1445 1442 1446 1458 1460 1458 1458 1459 1455 1453 1458 1457 1452 1451 1445 1442 1446 1445 1447 1451 1451 1452 1455 1457 1461 1465 1468 1471
1467 1466 1465 1465 1465 1466 1465 1466 1465 1466 1468 1469 1472 1474 1471 1465 1458 1454 1448 1439 1437 1435 1431 1429 1425 1423 1424 1420 1416 1417 1419 1426 1432 1430 1426 1428 1432 1433 1431 1429 1429 1430 1435 1442 1440 1436 1442 1438 1421 1419 1420 1417 1421 1422 1421 1429 1438 1436 1432 1437 1438 1431 1435 1449 1458 1454 1454 1464 1463 1458 1461 1457 1452 1455 1449 1444 1448 1450 1453 1455 1455 1457 1458 1459 1463 1465 1468 1471
1466 1465 1464 1463 1464 1465 1465 1465 1465 1467 1468 1469 1473 1472 1465 1458 1454 1450 1444 1439 1438 1435 1436 1439 1431 1424 1428 1426 1420 1418 1418 1426 1433 1433 1431 1431 1433 1433 1430 1427 1426 1426 1427 1432 1434 1432 1437 1437 1423 1419 1423 1418 1416 1420 1419 1422 1429 1435 1438 1434 1429 1430 1434 1444 1458 1461 1462 1470 1465 1459 1465 1465 1464 1466 1458 1452 1455 1456 1457 1458 1458 1459 1460 1461 1464 1466 1469 1471
1465 1464 1463 1462 1463 1464 1464 1465 1466 1468 1469 1470 1473 1469 1462 1457 1452 1448 1445 1442 1441 1439 1440 1442 1433 1424 1427 1430 1426 1418 1416 1427 1434 1433 1436 1440 1437 1434 1434 1433 1427 1424 1424 1428 1432 1427 1430 1439 1429 1417 1421 1421 1414 1420 1425 1422 1421 1426 1429 1425 1428 1443 1448 1448 1457 1466 1471 1476 1469 1466 1472 1472 1473 1473 1466 1463 1464 1462 1461 1461 1461 1463 1463 1464 1467 1468 1470 1472
1466 1464 1464 1463 1463 1464 1465 1466 1467 1468 1470 1471 1472 1467 1460 1456 1452 1448 1446 1444 1442 1442 1441 1439 1432 1426 1425 1427 1427 1421 1417 1425 1433 1432 1436 1444 1440 1432 1434 1436 1429 1426 1425 1426 1430 1426 1425 1438 1437 1420 1417 1421 1420 1423 1430 1429 1423 1421 1424 1424 1428 1438 1445 1449 1454 1458 1467 1475 1477 1481 1483 1478 1476 1475 1469 1468 1468 1465 1465 1465 1466 1467 1468 1469 1471 1472 1473 1474
1466 1465 1465 1464 1464 1465 1465 1466 1466 1468 1470 1470 1469 1465 1458 1454 1449 1446 1444 1442 1440 1439 1438 1435 1432 1430 1427 1425 1426 1425 1421 1423 1429 1431 1432 1438 1439 1433 1431 1434 1431 1428 1425 1425 1428 1427 1424 1432 1439 1428 1419 1425 1431 1429 1428 1429 1428 1426 1430 1433 1434 1434 1437 1444 1450 1449 1455 1469 1479 1487 1488 1480 1474 1472 1471 1470 1470 1468 1466 1467 1469 1470 1471 1472 1474 1475 1476 1477
1465 1465 1465 1464 1464 1464 1464 1465 1466 1468 1469 1467 1464 1461 1456 1452 1448 1444 1442 1440 1437 1435 1434 1433 1432 1430 1428 1428 1428 1427 1425 1425 1427 1431 1433 1435 1437 1435 1431 1432 1433 1431 1429 1429 1430 1432 1432 1433 1435 1433 1428 1432 1437 1431 1424 1426 1427 1427 1429 1430 1431 1434 1439 1449 1456 1453 1451 1461 1469 1474 1483 1483 1474 1470 1472 1471 1470 1469 1467 1468 1471 1472 1473 1475 1476 1478 1479 1479
1465 1465 1463 1463 1464 1463 1464 1465 1465 1464 1465 1464 1461 1458 1455 1452 1449 1445 1442 1439 1436 1432 1431 1431 1431 1430 1428 1428 1429 1427 1427 1426 1425 1430 1435 1435 1434 1435 1432 1430 1431 1431 1432 1436 1435 1433 1434 1434 1433 1432 1431 1432 1433 1428 1423 1424 1423 1424 1429 1431 1430 1432 1438 1449 1459 1457 1454 1461 1463 1465 1479 1484 1472 1469 1473 1471 1469 1470 1470 1471 1472 1474 1476 1477 1478 1480 1481 1482
1464 1464 1463 1463 1463 1462 1463 1465 1464 1463 1463 1461 1459 1457 1455 1452 1450 1447 1445 1442 1436 1432 1432 1432 1431 1431 1430 1429 1430 1430 1429 1427 1424 1426 1432 1433 1432 1432 1431 1430 1431 1432 1433 1437 1436 1432 1432 1438 1441 1438 1432 1427 1426 1425 1423 1425 1428 1431 1437 1438 1438 1439 1437 1438 1443 1447 1453 1463 1465 1468 1480 1483 1473 1471 1473 1471 1471 1474 1475 1475 1475 1476 1477 1477 1480 1481 1482 1484
1463 1463 1462 1463 1462 1461 1464 1466 1466 1465 1463 1461 1459 1458 1456 1453 1450 1449 1447 1444 1439 1435 1436 1436 1433 1433 1431 1430 1433 1432 1430 1429 1425 1423 1427 1430 1431 1430 1429 1429 1431 1434 1435 1437 1436 1434 1437 1444 1447 1448 1445 1440 1436 1434 1433 1435 1439 1444 1445 1443 1442 1442 1436 1432 1435 1442 1452 1459 1460 1467 1481 1483 1476 1474 1474 1473 1474 1476 1479 1481 1481 1481 1481 1481 1481 1483 1484 1486
1462 1461 1461 1463 1463 1463 1465 1467 1466 1466 1464 1463 1462 1460 1457 1453 1450 1449 1448 1445 1440 1437 1438 1438 1436 1435 1432 1432 1434 1433 1429 1430 1428 1425 1425 1428 1429 1428 1428 1429 1431 1434 1436 1437 1436 1435 1441 1445 1447 1453 1457 1454 1452 1451 1449 1448 1448 1449 1449 1446 1446 1446 1442 1439 1438 1443 1452 1455 1454 1464 1479 1483 1480 1477 1477 1476 1475 1477 1479 1479 1480 1482 1484 1485 1485 1487 1488 1489
1463 1462 1462 1463 1463 1463 1465 1466 1465 1466 1466 1465 1465 1462 1459 1456 1452 1449 1448 1446 1442 1440 1439 1438 1437 1437 1436 1435 1437 1435 1431 1430 1430 1429 1429 1431 1430 1427 1427 1428 1431 1433 1436 1438 1438 1438 1442 1444 1445 1451 1454 1452 1453 1454 1451 1448 1451 1455 1453 1450 1452 1453 1451 1448 1446 1452 1458 1458 1459 1465 1471 1479 1483 1480 1480 1479 1477 1479 1480 1478 1478 1481 1483 1485 1486 1488 1490 1491
1464 1463 1463 1463 1464 1464 1465 1465 1465 1466 1465 1465 1466 1464 1461 1459 1455 1451 1449 1448 1446 1444 1441 1440 1439 1441 1443 1441 1440 1441 1437 1433 1434 1435 1435 1435 1432 1428 1427 1429 1430 1432 1434 1437 1438 1439 1446 1450 1448 1448 1449 1446 1446 1448 1448 1447 1451 1455 1454 1454 1457 1457 1457 1459 1462 1466 1463 1460 1465 1468 1467 1474 1483 1481 1481 1481 1479 1480 1482 1482 1483 1485 1488 1489 1489 1490 1493 1494
1464 1463 1462 1463 1465 1466 1466 1466 1465 1465 1465 1465 1466 1466 1463 1460 1458 1456 1453 1450 1449 1449 1447 1447 1446 1447 1449 1447 1445 1447 1445 1441 1442 1443 1441 1440 1438 1434 1432 1431 1433 1434 1435 1436 1437 1439 1446 1451 1450 1449 1449 1446 1444 1445 1447 1449 1451 1453 1454 1457 1461 1461 1462 1466 1471 1470 1461 1457 1464 1469 1469 1475 1481 1480 1481 1482 1481 1482 1483 1485 1488 1491 1494 1494 1494 1496 1498 1500
1464 1464 1463 1464 1465 1465 1465 1465 1464 1465 1466 1465 1466 1466 1464 1462 1460 1458 1456 1454 1454 1453 1453 1455 1454 1451 1450 1449 1447 1450 1451 1450 1451 1449 1445 1445 1445 1442 1439 1436 1436 1437 1437 1438 1440 1442 1446 1449 1449 1450 1448 1444 1445 1446 1446 1447 1450 1454 1456 1457 1461 1464 1464 1467 1470 1468 1462 1462 1466 1469 1472 1478 1479 1479 1480 1481 1483 1485 1485 1486 1489 1492 1495 1495 1496 1498 1501 1503
1466 1466 1465 1464 1464 1463 1462 1463 1463 1465 1466 1466 1466 1466 1464 1463 1462 1459 1456 1457 1458 1457 1455 1456 1456 1453 1452 1450 1449 1451 1452 1452 1453 1452 1448 1448 1447 1444 1442 1440 1439 1440 1441 1443 1443 1446 1450 1451 1452 1455 1451 1444 1442 1443 1443 1445 1448 1452 1455 1457 1460 1463 1465 1467 1468 1467 1467 1472 1475 1474 1477 1482 1481 1479 1480 1481 1484 1486 1489 1490 1491 1493 1494 1493 1495 1497 1500 1502
1467 1468 1467 1467 1465 1462 1461 1462 1463 1465 1467 1467 1467 1466 1465 1464 1463 1461 1458 1458 1459 1459 1457 1457 1456 1454 1452 1452 1452 1453 1452 1450 1451 1449 1447 1448 1448 1444 1442 1439 1440 1442 1443 1444 1446 1448 1451 1453 1454 1458 1460 1455 1448 1444 1443 1443 1446 1453 1461 1466 1467 1465 1463 1465 1467 1467 1470 1477 1481 1482 1483 1485 1483 1480 1481 1485 1486 1489 1493 1495 1496 1496 1495 1494 1496 1498 1500 1503
1468 1468 1467 1468 1467 1463 1462 1463 1464 1466 1467 1466 1465 1465 1465 1465 1462 1462 1462 1460 1459 1459 1458 1457 1457 1456 1455 1454 1454 1453 1451 1449 1448 1446 1445 1446 1445 1442 1439 1437 1436 1438 1441 1444 1447 1450 1452 1453 1457 1462 1466 1465 1460 1453 1448 1446 1453 1464 1472 1475 1473 1466 1462 1465 1467 1468 1470 1474 1479 1484 1486 1485 1483 1482 1485 1489 1491 1492 1496 1498 1499 1499 1498 1498 1499 1500 1502 1504